Dewpoint
64 67 67 67 66 66 66 65 65 64 63 61 59 59 59 58 57 56 59 62 65 67 66 65 66 67 67 67 67 68 68 68 67 68 67 67 66 62 61 60 59 60 59
65 67 67 67 67 66 65 63 62 60 60 59 57 56 55 54 54 55 55 60 64 66 67 66 66 66 66 67 67 68 68 68 67 67 66 67 67 65 62 61 60 60 60
66 67 67 67 67 67 65 65 59 58 55 55 55 56 55 54 53 52 51 56 60 63 65 66 66 66 66 66 66 67 68 68 68 67 67 67 68 66 64 62 61 60 61
65 66 66 66 67 66 66 65 64 63 61 57 56 56 55 55 54 52 51 51 56 57 61 65 66 67 68 67 66 66 68 68 67 68 68 67 68 67 65 64 62 61 61
65 65 65 65 66 65 65 65 64 63 62 60 58 56 56 55 54 53 51 51 52 56 57 60 63 64 65 67 65 66 66 67 67 67 67 67 67 67 66 65 64 62 61
64 65 66 65 65 65 64 64 64 63 62 62 61 59 59 58 57 56 54 52 52 53 55 58 59 60 62 65 66 66 65 67 67 67 67 66 66 67 66 66 64 63 62
63 64 65 64 63 64 64 63 62 61 62 62 61 62 61 59 57 57 56 55 54 54 55 55 57 59 60 63 65 65 65 65 66 66 66 66 66 66 66 66 65 64 63
62 62 62 62 62 61 62 62 62 60 60 61 59 58 56 57 59 58 57 56 55 55 55 56 57 59 61 61 61 63 64 64 65 65 66 66 65 65 64 64 65 65 64
62 62 61 61 61 61 61 61 60 59 58 59 60 58 55 52 52 54 57 57 56 56 56 56 59 61 61 61 62 61 61 63 64 65 64 64 65 64 64 64 64 65 65
61 62 62 61 61 61 61 61 61 60 59 58 58 60 57 54 53 51 55 55 56 56 57 58 59 60 60 61 60 59 60 61 63 63 64 64 64 64 64 64 64 64 65
61 61 61 61 60 60 60 60 60 60 60 59 58 57 59 60 58 56 54 55 56 57 57 58 59 59 59 59 60 59 59 61 63 63 63 62 63 63 63 64 64 64 64
59 60 60 60 61 60 60 60 59 59 59 60 58 58 59 58 57 57 56 55 54 56 56 57 57 58 59 59 58 57 58 60 62 62 63 63 63 63 64 63 63 63 63
57 58 58 59 59 60 61 61 60 59 59 60 60 59 60 59 59 57 57 56 55 55 55 57 56 58 58 59 59 57 57 58 59 60 61 61 61 60 61 61 62 62 62
56 56 57 57 58 59 59 60 60 60 59 60 60 60 60 59 59 58 57 56 52 52 52 52 56 57 58 58 57 56 57 57 57 57 58 58 58 57 58 59 60 61 61
56 57 58 58 59 59 60 60 60 60 59 60 59 59 59 59 59 58 57 55 53 50 50 53 54 56 56 56 55 55 55 54 56 56 56 56 56 56 54 55 56 59 60
55 54 54 54 53 54 55 59 59 60 59 60 60 59 59 58 58 57 57 57 56 54 52 55 55 54 54 53 54 54 53 52 53 52 53 53 53 53 54 55 56 57 58
50 50 50 50 49 50 51 52 52 53 58 56 57 57 53 54 53 53 53 52 51 50 49 50 51 50 50 50 50 50 50 49 49 50 49 49 49 50 50 51 53 54 56
48 48 47 47 47 48 48 48 48 49 49 49 49 49 49 48 47 47 48 47 47 48 47 45 47 46 46 48 47 45 46 47 45 47 48 50 50 50 50 49 50 51 52
47 46 45 45 45 45 45 46 47 47 47 47 47 46 45 45 44 45 45 44 43 42 44 43 42 42 42 41 41 42 42 42 44 46 47 47 48 48 49 50 50 50 51
44 44 44 43 43 42 43 43 43 44 44 43 43 41 41 39 39 41 40 39 39 39 38 38 37 37 37 38 39 38 38 40 40 39 40 43 46 47 48 48 48 48 48
42 42 40 39 40 40 42 41 39 38 38 38 38 38 39 40 42 39 37 36 36 36 36 35 34 35 35 35 34 37 36 37 37 37 38 40 40 42 43 44 45 47 48
36 38 37 36 36 36 39 40 38 36 36 35 34 33 35 36 36 37 36 36 36 34 33 32 32 32 32 33 34 34 33 33 31 36 36 37 38 38 40 41 44 46 47
33 35 35 34 34 35 38 38 36 34 33 32 32 31 32 33 34 32 33 34 33 33 33 32 31 31 31 32 33 32 33 34 34 37 37 36 37 37 39 41 44 45 46
31 33 34 33 33 34 36 37 35 31 31 31 30 29 30 32 33 32 31 30 30 30 30 31 31 32 32 32 34 36 36 36 35 35 36 33 35 35 38 38 41 42 42
29 31 31 31 30 32 35 35 32 29 28 28 28 28 29 30 33 34 31 30 29 29 30 32 32 32 34 35 36 35 34 34 33 34 34 35 35 35 36 37 36 38 39
28 30 30 27 31 30 32 33 33 29 28 28 27 26 31 30 33 33 30 29 28 28 29 29 29 30 30 31 35 35 36 33 32 32 35 33 35 33 33 33 33 34 34
Lifted_Index
-1 -1 -1 -1 -1 -1 -1 -0 0 1 2 3 3 3 3 3 3 3 3 3 2 2 1 1 1 0 -0 -1 -1 -1 -1 -0 -0 -0 0 0 1 3 5 5 6 5 5
-1 -1 -1 -1 -1 -1 -1 -1 -0 1 2 3 3 3 3 3 3 3 3 3 3 2 2 1 1 0 -0 -0 -1 -1 -1 -1 -1 -0 -0 -0 1 2 3 5 5 5 5
-1 -1 -2 -2 -1 -1 -1 -1 -1 0 1 2 3 3 3 3 3 4 4 4 4 3 3 2 1 1 0 -0 -0 -1 -1 -1 -1 -1 -1 -1 -1 0 2 3 4 4 4
-1 -2 -2 -2 -2 -1 -1 -1 -1 -1 -0 1 2 2 2 3 3 4 4 5 5 5 4 3 2 1 1 0 0 -1 -1 -1 -1 -1 -1 -1 -1 -1 0 1 2 3 3
-1 -2 -2 -2 -2 -1 -1 -1 -1 -1 -1 -0 0 1 1 2 2 3 3 4 5 5 5 4 4 3 2 1 1 0 -1 -1 -1 -1 -1 -1 -1 -1 -1 0 1 2 2
-1 -2 -2 -2 -2 -1 -1 -1 -1 -1 -1 -1 -1 -0 0 1 1 1 2 3 4 5 5 4 4 4 3 2 2 1 -0 -1 -1 -1 -0 -0 -0 -1 -1 -1 0 1 1
-1 -1 -2 -2 -2 -2 -2 -1 -1 -1 -1 -1 -1 -0 0 0 0 0 1 1 2 3 4 4 4 4 3 3 2 1 1 -0 -0 -1 -0 -0 -0 -1 -1 -1 -1 -0 0
-1 -1 -1 -2 -2 -1 -1 -1 -1 -1 -1 -1 -1 -0 0 1 1 0 1 1 2 2 3 3 4 4 3 2 2 2 1 1 0 -0 -0 -0 -0 -1 -1 -1 -1 -1 -1
-1 -1 -1 -1 -1 -1 -1 -1 -1 -1 -1 -1 -1 -0 0 1 1 1 1 1 2 2 3 3 3 3 2 2 2 2 2 2 2 1 0 -0 -1 -1 -1 -1 -1 -1 -1
-1 -1 -1 -1 -1 -1 -1 -1 -1 -1 -0 -0 -0 -0 0 1 1 2 2 2 2 3 3 3 3 3 2 2 2 3 3 3 2 1 1 0 -1 -1 -1 -1 -1 -1 -1
-1 -1 -1 -1 -1 -1 -1 -2 -2 -1 -1 -0 -0 -0 -0 0 1 1 2 2 2 3 3 3 3 3 3 3 3 3 3 3 2 1 0 0 -0 -1 -1 -1 -1 -1 -1
-1 -1 -1 -1 -1 -2 -2 -2 -2 -1 -1 -1 -0 -0 0 0 0 1 1 2 2 2 3 3 3 3 3 3 3 3 3 2 2 1 1 1 0 0 0 0 -0 -0 -0
-1 -1 -1 -1 -1 -2 -2 -2 -2 -1 -1 -1 -0 -0 0 -0 -0 0 1 1 2 2 2 3 3 3 3 3 3 2 2 2 2 1 1 1 2 2 2 2 2 1 1
-1 -1 -1 -1 -1 -2 -2 -2 -2 -2 -1 -1 -0 -0 -0 -0 -0 0 0 1 1 2 2 3 3 3 3 3 2 2 2 2 2 2 2 3 3 3 3 4 3 3 2
-0 -0 -1 -1 -1 -1 -2 -2 -2 -2 -1 -1 -0 -0 -0 -1 -0 0 1 1 2 2 2 2 2 2 2 2 2 2 2 2 2 3 4 5 5 5 5 5 5 4 3
-0 -0 -0 -1 -1 -1 -1 -1 -1 -1 -1 -0 -0 -0 -0 -0 -0 1 1 2 2 2 2 2 2 2 2 2 2 3 3 4 5 6 7 8 8 8 8 7 6 5 5
0 0 0 0 0 0 0 0 -0 0 0 0 1 1 0 0 1 1 2 2 2 2 2 2 2 2 2 3 4 6 7 8 10 11 11 11 11 11 10 9 8 7 7
1 2 2 2 2 2 2 2 1 2 2 1 1 1 1 1 1 2 2 2 3 2 2 2 3 4 6 8 10 11 12 13 14 14 14 13 13 12 12 11 10 10 9
3 3 3 3 3 3 3 3 3 3 3 2 2 2 2 2 2 2 3 4 5 5 5 6 7 9 12 14 15 15 16 16 16 16 15 15 14 14 13 13 12 12 11
4 4 4 5 5 5 5 5 5 5 6 5 5 5 5 5 6 6 8 9 10 11 11 12 12 14 15 17 17 17 17 18 18 18 18 17 16 15 15 15 14 14 13
7 7 7 7 8 8 8 8 8 10 11 11 10 11 11 12 12 13 14 14 15 15 15 15 15 16 16 17 18 18 19 19 19 19 19 18 18 17 17 17 16 15 15
11 11 10 11 12 12 12 12 13 14 15 15 15 15 15 16 17 17 17 18 17 17 17 16 16 16 17 18 19 20 20 19 19 19 19 19 19 19 18 18 17 16 15
14 14 14 14 15 15 15 16 16 17 17 17 17 17 17 18 18 18 19 19 19 19 19 18 18 18 19 20 20 20 20 20 20 19 20 19 19 19 19 18 17 16 16
16 16 16 16 17 17 17 18 18 18 18 18 19 19 19 19 19 19 19 19 19 20 20 20 20 20 20 21 21 20 20 20 20 19 19 19 19 19 18 18 17 16 15
17 17 17 17 18 18 19 19 19 19 19 19 19 19 19 20 20 20 19 19 19 19 20 20 20 20 21 21 21 20 20 19 19 19 18 18 18 18 18 17 16 16 15
17 17 18 18 18 19 19 19 19 19 19 19 19 20 20 20 20 20 20 19 19 19 19 20 20 20 20 20 20 20 20 19 18 18 18 18 18 18 17 16 16 16 16